Home   Weather   Santa Clara   Past weeks

Flag for Cuba Past Weather in Santa Clara, Cuba — Yesterday and Last 2 Weeks

Now
77 °F

Light rain. Partly sunny.


Feels Like: 78 °F
Forecast: 72 / 85 °F
Wind: 1 mph from North

Location: Cienfuegos - Las Villas

Current Time: Aug 30, 2016 at 11:03:39 AM

Latest Report: Aug 30, 2016 at 9:51 AM


Visibility: 6 mi

Pressure: 29.95 "Hg

Humidity: 94%

Dew Point: 75 °F

Location of Santa ClaraLocation

Past Weather in Santa Clara — Graph

°F

Santa Clara Temperature Yesterday

Maximum temperature yesterday: 77 °F (at 9:58 AM)
Minimum temperature yesterday: 73 °F (at 12:58 AM)
Average temperature yesterday: 75 °F

High & Low Weather Summary for the Past Weeks

 TemperatureHumidityPressure
High97 °F (Aug 22, 3:58 PM)100% (Aug 16, 3:58 AM)30.09 "Hg (Aug 16, 3:58 AM)
Low73 °F (Aug 17, 12:58 AM)44% (Aug 22, 3:58 PM)29.83 "Hg (Aug 26, 2:50 PM)
Average81 °F83%29.98 "Hg
* Reported Aug 15 9:58 AM — Aug 30 9:51 AM, Santa Clara, Weather by CustomWeather, © 2016

Note: Actual official high and low records may vary slightly from our data, if they occured in-between our weather recording intervals... More about our weather records

Advertising

Santa Clara Weather History for the Previous 24 Hours

Scroll right to see more
 ConditionsComfort  
Time TempWeatherWind HumidityBarometerVisibility
9:51 AM
Tue, Aug 30
77 °FLight rain. Partly sunny.1 mph94%29.95 "Hg6 mi
8:50 AM77 °FPartly sunny.2 mph89%29.92 "Hg6 mi
7:58 AM75 °FMild.6 mph94%29.95 "HgN/A
6:58 AM75 °FMild.3 mph94%29.89 "HgN/A
5:58 AM73 °FMild.2 mph100%29.86 "HgN/A
4:57 AM73 °FMild.3 mph100%29.89 "HgN/A
3:58 AM73 °FMild.3 mph100%29.89 "HgN/A
2:58 AM73 °FMild.3 mph100%29.92 "HgN/A
1:58 AM73 °FMild.5 mph100%29.92 "HgN/A
12:58 AM73 °FMild.1 mph100%29.95 "HgN/A
11:58 PM
Mon, Aug 29
75 °FMild.3 mph94%29.95 "HgN/A
10:58 PM75 °FMild.3 mph94%29.95 "HgN/A
9:58 PM73 °FMild.3 mph100%29.95 "HgN/A
8:58 PM75 °FMild.3 mph94%29.92 "HgN/A
7:58 PM75 °FMild.7 mph94%29.92 "HgN/A
6:58 PM77 °FWarm.6 mph94%29.89 "HgN/A
5:58 PM77 °FWarm.7 mph94%29.89 "HgN/A
4:58 PM77 °FWarm.6 mph94%29.89 "HgN/A
3:58 PM77 °FWarm.7 mph94%29.92 "HgN/A
2:58 PM75 °FMild.8 mph100%29.92 "HgN/A
1:58 PM75 °FMild.15 mph100%29.92 "HgN/A
12:58 PM77 °FWarm.6 mph100%29.92 "HgN/A
11:58 AM75 °FMild.6 mph100%29.92 "HgN/A
Weather by CustomWeather, © 2016

See weather overviewHow to use our weather pages